RH
78 78 78 78 79 79 79 78 78 78 78 78 78 78 79 79 79 79 78 78 77 77 76 76 76 77 77 78 80 81 81 81 81 82 83 83 84 85 85 84 84 83 83 83 83 83 82 82 82 83 84 86 87 88 88 89 90 91 91 91 91 92 92 92 93 93 93 93 92
78 78 79 79 79 79 79 79 78 77 76 75 75 74 74 74 74 74 74 73 73 73 72 71 71 71 72 74 76 78 79 79 79 80 81 82 83 84 85 85 84 84 83 83 83 83 83 83 82 82 82 84 86 87 87 87 87 88 89 90 91 92 92 92 93 93 93 93 93
75 76 77 77 78 78 79 79 78 77 76 75 74 73 72 71 71 70 70 69 69 68 68 66 66 65 66 67 69 70 72 73 74 75 76 78 79 81 82 83 83 83 83 82 82 81 82 83 82 81 81 82 86 87 86 83 83 83 84 86 88 90 91 91 92 92 92 92 92
69 69 70 72 73 75 76 76 76 76 76 75 74 73 72 70 69 68 66 65 64 63 62 61 60 60 59 59 59 60 61 63 64 66 68 70 72 75 77 79 80 81 81 80 80 79 80 81 81 81 80 79 82 85 86 84 82 81 80 81 85 87 89 89 90 90 90 90 90
61 61 61 62 63 65 66 68 69 69 69 69 68 67 66 64 63 61 60 59 57 56 55 54 54 53 53 52 52 52 52 53 54 55 57 59 61 64 67 70 72 74 75 76 76 76 76 77 79 80 80 78 79 82 84 84 84 83 82 82 84 86 88 89 89 89 89 89 89
58 58 58 58 58 58 58 59 59 60 60 60 58 56 55 53 51 51 50 49 48 47 47 47 47 47 47 46 47 47 47 47 47 48 48 49 51 53 55 58 60 63 66 68 69 70 71 72 75 77 79 80 78 79 80 82 82 83 83 82 83 84 87 89 90 90 90 90 89
56 56 56 56 56 55 55 55 55 54 54 52 50 48 46 45 44 43 43 43 42 41 40 40 41 41 42 42 43 43 44 44 44 45 45 45 46 46 47 48 49 51 54 58 61 63 65 67 71 74 77 80 80 79 79 79 79 79 79 78 78 80 82 86 89 90 90 90 90
52 52 52 52 51 51 51 50 50 50 49 47 45 43 41 40 39 38 38 38 38 38 38 37 37 37 37 38 38 39 40 41 42 43 44 45 46 46 45 45 45 45 46 49 51 55 58 62 65 69 73 76 78 79 79 79 79 78 76 75 75 75 77 79 83 87 89 90 91
47 48 47 47 47 47 47 47 46 45 44 43 41 40 39 38 37 37 36 36 36 35 35 35 35 35 35 35 35 35 36 38 39 41 42 44 45 45 45 45 45 45 45 45 46 47 50 53 58 63 67 71 72 74 76 77 77 76 75 74 73 73 73 74 77 81 84 87 89
44 44 44 44 43 43 43 43 42 41 40 39 38 37 37 36 35 35 35 35 34 34 34 34 33 33 33 33 33 33 34 34 35 37 39 41 43 44 45 45 45 45 45 45 45 45 46 46 49 53 58 63 67 70 72 73 73 73 73 73 72 72 73 74 75 77 79 81 82
41 41 41 40 40 39 39 38 37 36 36 35 35 35 34 34 34 34 34 34 34 33 33 33 33 32 32 32 32 32 32 33 33 34 36 38 40 42 44 45 45 45 46 46 46 45 45 45 45 46 48 50 55 59 63 66 68 70 71 72 73 73 75 76 77 78 78 77 77
39 38 38 37 36 36 35 34 34 34 34 34 34 34 34 34 34 34 33 33 33 33 33 33 33 33 33 32 32 32 32 32 33 33 34 34 36 38 41 43 44 45 45 46 46 46 46 46 46 46 46 46 47 49 52 55 59 64 68 72 75 76 77 78 79 79 79 78 77
36 36 36 35 35 35 35 35 35 35 34 34 34 34 34 34 34 34 34 34 34 34 33 33 34 34 34 33 33 33 33 33 33 33 33 33 34 35 37 39 40 42 43 44 45 45 46 46 46 46 47 47 47 47 48 49 52 57 62 68 73 75 76 78 80 81 81 82 81
36 36 37 37 37 37 37 36 36 36 36 36 36 36 36 36 35 35 35 35 35 35 35 34 34 34 34 34 34 34 33 33 33 32 32 32 33 34 34 36 37 38 40 41 42 43 44 45 45 46 46 46 47 47 47 48 49 51 55 60 66 70 74 77 79 80 82 84 84
37 37 37 38 37 37 37 37 37 37 36 36 36 35 35 35 35 35 35 35 34 34 34 34 34 34 34 34 33 33 33 33 33 32 32 32 32 33 33 34 35 36 36 37 38 39 40 41 42 43 44 45 45 45 46 47 47 48 50 52 56 61 66 70 74 76 79 81 82
37 37 36 36 36 36 36 35 35 35 35 34 34 34 33 33 33 32 32 32 32 32 32 32 32 32 32 32 32 32 32 32 32 32 32 31 32 32 32 33 34 34 35 35 36 36 37 37 39 39 41 42 42 43 44 45 46 46 47 48 50 53 56 60 65 69 72 75 78
36 35 35 35 34 34 34 33 33 32 32 32 32 31 31 31 30 30 30 30 30 30 30 30 30 30 30 30 30 31 31 31 30 30 30 30 30 31 31 32 33 34 34 34 35 35 35 36 37 37 38 39 40 41 43 44 45 45 46 46 47 48 50 52 56 59 63 66 69
35 34 34 33 33 32 32 31 31 30 30 29 29 29 28 28 28 27 27 27 27 27 27 27 27 27 27 28 28 28 28 28 28 28 28 28 28 29 29 30 31 32 32 33 33 33 34 34 35 36 37 38 39 41 42 44 45 46 46 46 46 46 47 48 49 51 54 56 58
33 32 32 31 31 30 29 29 28 28 27 26 26 25 25 25 24 24 24 24 24 24 24 24 24 24 24 24 25 25 25 25 25 26 26 26 26 26 27 27 28 29 30 31 31 31 32 32 33 34 35 36 38 39 41 43 45 46 47 47 46 46 45 45 45 45 46 48 50
30 29 28 28 27 26 26 25 25 24 24 23 23 22 22 22 21 21 21 21 21 21 21 21 21 21 22 22 23 23 23 24 24 24 24 24 25 25 25 26 26 27 28 28 29 29 30 30 31 32 33 33 35 36 38 39 41 43 45 46 46 46 45 44 43 42 42 42 43
27 26 26 25 24 24 23 23 22 22 22 21 21 21 20 20 20 19 19 19 18 18 18 18 19 19 20 20 21 21 22 22 23 23 23 24 24 24 25 25 26 27 27 27 28 28 28 29 30 30 31 32 32 33 34 36 37 38 40 42 43 44 44 44 43 41 40 39 39
26 25 25 24 24 23 22 22 21 21 21 20 20 19 19 19 19 18 18 18 17 17 17 17 17 17 18 18 19 20 21 21 22 23 23 23 24 24 25 26 26 27 27 27 27 28 28 28 29 29 30 31 31 32 32 33 34 35 36 38 40 41 43 44 44 43 42 40 39
25 25 24 24 23 23 22 22 21 20 20 19 19 18 18 18 18 17 17 17 17 17 17 17 17 17 17 17 17 18 19 20 21 22 23 24 24 24 25 26 27 27 28 28 28 29 29 29 29 30 30 30 31 31 31 32 32 33 34 34 36 38 40 42 43 44 44 43 41
24 24 23 23 22 21 21 20 19 19 18 18 17 17 17 16 16 16 16 16 16 16 16 16 17 16 17 17 17 17 18 19 20 21 22 23 24 25 25 26 27 28 28 29 29 30 30 30 30 31 31 31 31 31 32 32 32 32 32 32 33 34 36 38 41 43 45 46 45
22 21 21 20 19 19 18 18 17 17 16 16 16 15 15 15 15 14 14 14 15 15 15 15 15 16 16 17 17 17 17 18 18 19 20 21 22 24 25 26 27 27 28 29 30 30 31 32 32 32 33 33 33 33 32 32 32 32 32 32 32 32 33 34 37 40 43 46 47
18 18 17 16 16 15 15 14 14 14 13 13 13 13 13 13 13 13 13 13 13 13 13 14 14 14 15 15 16 17 17 18 18 19 19 20 21 22 24 25 26 27 28 29 30 30 32 32 33 34 34 35 34 34 34 33 33 33 33 33 33 32 33 33 34 37 41 44 47
14 13 12 12 11 11 11 10 10 10 10 10 10 11 11 11 11 11 11 12 12 12 12 12 13 13 13 14 15 16 17 17 18 19 19 20 21 22 23 24 25 26 27 28 29 30 32 33 34 35 36 36 36 36 35 35 34 34 34 34 34 35 34 34 34 35 38 42 45
9 9 8 8 8 8 8 7 8 8 8 8 8 9 9 9 10 10 10 10 11 11 11 12 12 12 12 13 13 14 15 16 17 18 19 20 21 22 23 23 24 25 26 28 29 31 32 34 35 37 37 38 37 37 36 36 35 35 35 35 36 36 36 36 36 36 37 39 43
7 7 6 6 7 6 7 7 7 7 7 8 8 8 8 9 9 9 9 9 10 10 11 11 11 12 12 12 13 13 14 14 15 17 18 20 21 22 23 24 24 25 26 28 30 31 33 34 36 38 39 39 39 38 38 37 37 37 36 36 37 37 37 38 38 38 38 37 39
6 6 7 7 7 7 7 7 7 8 8 8 8 8 8 9 9 9 9 10 10 10 11 11 11 11 12 12 12 13 13 13 14 15 17 18 20 22 23 24 25 26 26 27 29 31 33 35 37 38 39 40 40 40 39 39 38 38 37 37 37 37 38 38 39 39 39 39 38
7 7 7 8 8 8 8 8 8 8 8 8 8 8 9 9 9 9 10 10 10 11 11 11 12 12 12 12 12 13 13 13 14 14 15 17 19 21 23 25 27 27 28 29 29 31 32 35 36 38 40 41 41 41 40 40 39 39 38 38 38 38 39 39 40 40 40 40 39
8 8 8 8 8 8 8 8 8 8 8 9 9 9 9 9 9 9 10 10 11 11 11 12 12 12 13 13 13 13 13 14 14 14 15 15 17 19 22 25 28 29 31 31 31 32 32 34 36 38 40 41 42 42 41 41 40 40 39 39 39 40 40 40 41 41 41 42 40
9 9 9 9 9 9 9 9 9 9 9 9 9 9 9 9 9 9 9 10 10 11 11 12 13 13 14 14 14 14 14 14 14 15 15 15 15 17 19 23 26 29 32 34 35 35 34 35 36 38 40 41 42 42 42 42 41 41 41 40 40 41 41 41 42 42 43 43 42
9 9 9 9 9 9 9 8 9 9 9 9 9 9 9 9 9 9 9 10 10 11 12 12 13 14 14 15 15 15 15 15 15 15 16 16 15 16 17 19 22 26 31 35 37 38 38 37 38 39 40 42 43 43 43 43 43 42 42 41 41 42 42 43 43 44 44 45 45
10 10 10 9 9 9 9 9 9 9 9 9 9 9 9 9 9 10 10 10 11 11 12 12 13 14 15 16 16 17 17 16 16 16 16 17 16 16 16 16 18 22 27 32 36 39 40 40 40 41 42 43 43 44 44 44 44 44 44 43 43 43 44 44 44 45 46 47 47
10 10 10 10 10 10 9 9 9 9 9 9 9 10 9 10 10 10 10 11 11 12 12 13 14 15 16 16 17 18 18 18 18 18 18 18 18 18 17 15 16 18 21 26 32 36 39 41 43 44 45 45 45 45 44 45 46 46 46 46 45 45 45 46 46 47 48 49 49
11 11 11 11 11 11 11 10 11 11 11 11 11 11 11 11 11 11 12 12 13 13 13 13 14 15 16 17 18 18 19 19 20 20 19 19 20 20 19 18 16 16 18 21 26 30 34 38 41 44 46 48 48 47 46 46 46 48 49 49 48 48 48 48 48 49 50 51 52
13 13 13 13 13 13 13 13 13 13 13 13 13 13 13 13 13 13 14 14 15 15 15 15 16 17 17 18 19 19 20 20 20 21 21 21 21 22 22 21 19 18 18 19 23 26 29 32 36 40 44 48 49 49 49 47 47 48 50 51 51 51 50 50 50 51 52 53 54
15 15 16 16 16 16 15 15 15 15 16 16 15 15 15 16 15 16 16 17 17 18 18 18 18 18 19 20 21 21 21 21 21 22 22 22 22 23 23 23 22 21 20 21 23 25 27 29 31 35 39 43 47 49 49 49 48 49 50 52 53 53 53 53 52 52 53 54 56
18 18 18 18 18 18 18 18 18 18 19 19 19 19 18 18 19 19 19 19 20 21 22 22 21 21 21 22 23 23 22 22 22 23 23 23 23 24 24 24 23 23 23 23 25 26 28 29 30 32 34 38 42 46 48 50 49 49 50 51 53 54 55 54 54 54 55 56 57
19 19 20 20 20 21 21 21 21 21 21 21 21 21 21 21 21 22 22 23 23 24 25 25 24 24 24 24 25 25 24 24 24 24 25 26 26 26 26 26 25 25 25 25 27 29 30 31 31 32 33 36 40 43 47 49 50 50 51 51 54 56 57 57 57 57 58 59 61